sat.trackr.live / text

‹ back to catalog

UNKNOWN

NORAD 85023

UNKNOWN UNKNOWN UNKNOWN

§ Identity

Operator
Country
Launch date
Launch site
Launch vehicle
Mass (kg)
RCS (m²)

External: N2YO · Heavens-Above

§ Orbital elements

Epoch: 2026-09-17T04:13:36.153696Z

Period
96.66 min
Inclination
99.8322°
Eccentricity
0.0003401
Mean motion
14.89824696 rev/d
Perigee alt
596.1 km
Apogee alt
600.9 km
Semi-major
6,976.6 km
B*
2.5741e-3
RAAN
344.3266°
Arg perigee
174.6618°
Mean anomaly
215.7736°
Rev number
67,009

§ Raw data

UNKNOWN1 85023U          26260.17611289  .00024725  00000+0  25741-2 0  99992 85023  99.8322 344.3266 0003401 174.6618 215.7736 14.89824696670092

JSON: /api/v1/satellites/85023 · /tle

For live sub-satellite position, see the globe view (requires WebGL).

§ Visibility from observer

Set your observer location to see the next 7 days of passes ≥ 10°. The values pass through the URL so the page stays shareable.

No JS? Fill the form by hand. The geolocation button needs JavaScript.